sat.trackr.live / text

‹ back to catalog

STARLINK-31823

NORAD 59794 · 2024-093N

PAYLOAD ACTIVE UNKNOWN

§ Identity

Operator
Country
US
Launch date
2024-05-18
Launch site
AFETR
Launch vehicle
Mass (kg)
RCS (m²)

Purposes: comms

External: N2YO · Heavens-Above · Gunter

§ Orbital elements

Epoch: 2026-09-21T04:19:15.097440Z

Period
94.27 min
Inclination
43.0028°
Eccentricity
0.0001171
Mean motion
15.27575726 rev/d
Perigee alt
482.3 km
Apogee alt
483.9 km
Semi-major
6,861.2 km
B*
2.9517e-5
RAAN
184.8259°
Arg perigee
275.0953°
Mean anomaly
84.9765°
Rev number
13,259

§ Raw data

STARLINK-318231 59794U 24093N   26264.18003585  .00000550  00000+0  29517-4 0  99992 59794  43.0028 184.8259 0001171 275.0953  84.9765 15.27575726132597

JSON: /api/v1/satellites/59794 · /tle

For live sub-satellite position, see the globe view (requires WebGL).

§ Visibility from observer

Set your observer location to see the next 7 days of passes ≥ 10°. The values pass through the URL so the page stays shareable.

No JS? Fill the form by hand. The geolocation button needs JavaScript.